Weather History for Fort Bragg, NC

Change the Weather History Date:

Friday, March 21, 2014

  Actual Average Record
Temperature  
Mean Temperature 51 °F -  
Max Temperature 69 °F 63 °F 81 °F (2012)
Min Temperature 33 °F 42 °F 32 °F (2013)
Degree Days  
Heating Degree Days 14    
Growing Degree Days 1 (Base 50)    
Moisture  
Dew Point 29 °F    
Average Humidity 43    
Maximum Humidity 89    
Minimum Humidity 21    
Precipitation  
Precipitation 0.00 in - - ()
Sea Level Pressure  
Sea Level Pressure 30.11 in    
Wind  
Wind Speed 4 mph (SSW)    
Max Wind Speed 8 mph    
Max Gust Speed -    
Visibility 10 miles    
Events      
Averages and records for this station are not official NWS values.
T = Trace of Precipitation, MM = Missing Value Source: NWS Daily Summary

Daily Weather History Graph

Daily Weather History Graph

Search for Another Location

Airport:

Trip Planner

Search our weather history database for the weather conditions in past years. The results will help you decide how hot, cold, wet, or windy it might be!

Date:

Astronomy

Mar. 21, 2014 Rise Set
Actual Time 7:17 AM EDT 7:28 PM EDT
Civil Twilight 6:52 AM EDT 7:53 PM EDT
Nautical Twilight 6:23 AM EDT 8:23 PM EDT
Astronomical Twilight 5:53 AM EDT 8:53 PM EDT
Moon No Moon Rise 10:18 AM EDT (3/21)
Length of Visible Light 13h 00m
Length of Day
12h 10m
Waning Gibbous, 75% of the Moon is Illuminated
Mar 21
Waning Gibbous
Mar 23
Last Quarter
Mar 30
New
Apr 7
First Quarter
Apr 15
Full

Hourly Weather History & Observations

Time (EDT) Temp. Windchill Dew Point Humidity Pressure Visibility Wind Dir Wind Speed Gust Speed Precip Events Conditions
12:58 AM 45.1 °F 41.4 °F 29.5 °F 54% 30.05 in 10.0 mi NNW 6.9 mph - N/A   Clear
1:58 AM 46.9 °F - 26.4 °F 45% 30.08 in 10.0 mi North 5.8 mph - N/A   Clear
2:58 AM 46.2 °F 45.0 °F 24.8 °F 43% 30.09 in 10.0 mi North 3.5 mph - N/A   Clear
3:58 AM 43.5 °F - 25.7 °F 50% 30.09 in 10.0 mi NNW 2.3 mph - N/A   Clear
4:58 AM 37.9 °F - 31.6 °F 78% 30.10 in 10.0 mi Calm Calm - N/A   Clear
5:58 AM 35.1 °F - 30.4 °F 83% 30.11 in 10.0 mi North 1.2 mph - N/A   Clear
6:58 AM 34.2 °F - 30.6 °F 87% 30.14 in 10.0 mi Calm Calm - N/A   Clear
7:58 AM 33.4 °F - 30.6 °F 89% 30.16 in 10.0 mi Calm Calm - N/A   Clear
8:58 AM 44.1 °F - 31.3 °F 61% 30.17 in 10.0 mi Calm Calm - N/A   Clear
9:58 AM 55.9 °F - 26.6 °F 32% 30.17 in 10.0 mi ESE 4.6 mph - N/A   Clear
10:58 AM 59.2 °F - 25.9 °F 28% 30.17 in 10.0 mi Calm Calm - N/A   Clear
11:58 AM 61.7 °F - 27.9 °F 28% 30.18 in 10.0 mi Variable 3.5 mph - N/A   Clear
12:58 PM 64.0 °F - 28.0 °F 26% 30.15 in 10.0 mi Variable 5.8 mph - 0.00 in   Clear
1:58 PM 66.2 °F - 27.1 °F 23% 30.13 in 10.0 mi Variable 5.8 mph - N/A   Clear
2:58 PM 67.5 °F - 26.6 °F 22% 30.11 in 10.0 mi South 4.6 mph - N/A   Clear
3:58 PM 69.3 °F - 28.0 °F 21% 30.09 in 10.0 mi SW 8.1 mph - N/A   Clear
4:58 PM 69.1 °F - 27.1 °F 21% 30.07 in 10.0 mi South 4.6 mph - N/A   Clear
5:58 PM 67.8 °F - 27.7 °F 22% 30.07 in 10.0 mi SSW 4.6 mph - N/A   Clear
6:58 PM 65.7 °F - 28.2 °F 24% 30.08 in 10.0 mi SSW 3.5 mph - N/A   Clear
7:58 PM 63.5 °F - 29.3 °F 28% 30.07 in 10.0 mi Variable 3.5 mph - N/A   Clear
8:58 PM 55.0 °F - 36.9 °F 50% 30.08 in 10.0 mi Calm Calm - N/A   Clear
9:58 PM 59.4 °F - 34.0 °F 39% 30.09 in 10.0 mi South 6.9 mph - N/A   Clear
10:58 PM 57.0 °F - 33.8 °F 42% 30.10 in 10.0 mi South 5.8 mph - N/A   Clear
11:58 PM 55.4 °F - 32.9 °F 43% 30.11 in 10.0 mi South 5.8 mph - N/A   Clear